Location: Unspecified
(0.0000°N, 0.0000°E)
Time: 11:36:06
(UTC+00:00)

S-56A Canister/Altair - Pass Details

Date: 26 November 2019
Orbit: 633 x 2499 km, 38.9° (Epoch: 07 December)

Event Time Altitude Azimuth Distance (km) Brightness Sun altitude
Rises 22:01:38 0° 328° (NNW) 3,296 - -56.7°
Reaches altitude 10° 22:04:36 10° 340° (NNW) 2,193 - -57.3°
Maximum altitude 22:08:43 27° 39° (NE) 1,224 - -58.0°
Drops below altitude 10° 22:12:30 10° 98° (E) 2,003 - -58.7°
Sets 22:15:04 0° 111° (ESE) 2,952 - -59.2°
